Time,TemperatureF,DewpointF,PressureIn,WindDirection,WindDirectionDegrees,WindSpeedMPH,WindSpeedGustMPH,Humidity,HourlyPrecipIn,Conditions,Clouds,dailyrainin,SoftwareType,DateUTC
2013-11-25 00:00:00,29.4,18.7,29.92,SW,214,7.0,23.0,64,0.00,,,0.00,VWS V14.01,2013-11-25 06:00:00,
2013-11-25 00:01:00,29.3,18.6,29.92,SSW,213,10.0,13.0,64,0.00,,,0.00,VWS V14.01,2013-11-25 06:01:00,
2013-11-25 00:06:00,29.3,19.0,29.92,SW,231,17.0,21.0,65,0.00,,,0.00,VWS V14.01,2013-11-25 06:06:00,
2013-11-25 00:11:00,29.4,19.1,29.91,SW,217,15.0,21.0,65,0.00,,,0.00,VWS V14.01,2013-11-25 06:11:00,
2013-11-25 00:16:00,29.5,19.2,29.91,SW,217,10.0,21.0,65,0.00,,,0.00,VWS V14.01,2013-11-25 06:16:00,
2013-11-25 00:21:00,29.6,19.3,29.90,SSW,211,10.0,21.0,65,0.00,,,0.00,VWS V14.01,2013-11-25 06:21:00,
2013-11-25 00:26:00,29.6,19.3,29.90,SSW,213,6.0,23.0,65,0.00,,,0.00,VWS V14.01,2013-11-25 06:26:00,
2013-11-25 00:30:00,29.6,19.3,29.90,SSW,210,10.0,23.0,65,0.00,,,0.00,VWS V14.01,2013-11-25 06:30:00,
2013-11-25 00:31:00,29.6,19.3,29.90,WSW,240,16.0,16.0,65,0.00,,,0.00,VWS V14.01,2013-11-25 06:31:00,
2013-11-25 00:36:00,29.7,19.4,29.90,SSW,199,9.0,21.0,65,0.00,,,0.00,VWS V14.01,2013-11-25 06:36:00,
2013-11-25 00:41:00,29.7,19.4,29.90,SSW,211,16.0,21.0,65,0.00,,,0.00,VWS V14.01,2013-11-25 06:41:00,
2013-11-25 00:46:00,29.8,19.5,29.90,SW,232,13.0,24.0,65,0.00,,,0.00,VWS V14.01,2013-11-25 06:46:00,
2013-11-25 00:51:00,29.8,19.5,29.90,SW,220,10.0,24.0,65,0.00,,,0.00,VWS V14.01,2013-11-25 06:51:00,
2013-11-25 00:56:00,29.8,19.5,29.89,South,191,11.0,24.0,65,0.00,,,0.00,VWS V14.01,2013-11-25 06:56:00,
2013-11-25 01:00:00,29.8,19.5,29.89,SW,234,11.0,24.0,65,0.00,,,0.00,VWS V14.01,2013-11-25 07:00:00,
2013-11-25 01:01:00,29.8,19.5,29.89,SW,234,11.0,24.0,65,0.00,,,0.00,VWS V14.01,2013-11-25 07:01:00,
2013-11-25 01:06:00,29.9,19.9,29.89,SW,233,15.0,21.0,66,0.00,,,0.00,VWS V14.01,2013-11-25 07:06:00,
2013-11-25 01:11:00,29.9,19.9,29.88,SW,223,19.0,21.0,66,0.00,,,0.00,VWS V14.01,2013-11-25 07:11:00,
2013-11-25 01:16:00,29.8,19.8,29.88,SW,234,13.0,21.0,66,0.00,,,0.00,VWS V14.01,2013-11-25 07:16:00,
2013-11-25 01:21:00,29.8,19.8,29.88,SSW,202,8.0,21.0,66,0.00,,,0.00,VWS V14.01,2013-11-25 07:21:00,
2013-11-25 01:26:00,29.7,19.8,29.88,SSW,211,13.0,21.0,66,0.00,,,0.00,VWS V14.01,2013-11-25 07:26:00,
2013-11-25 01:30:00,29.6,19.6,29.88,SW,229,14.0,21.0,66,0.00,,,0.00,VWS V14.01,2013-11-25 07:30:00,
2013-11-25 01:31:00,29.6,19.6,29.88,SW,218,8.0,14.0,66,0.00,,,0.00,VWS V14.01,2013-11-25 07:31:00,
2013-11-25 01:36:00,29.5,19.6,29.88,SW,234,12.0,16.0,66,0.00,,,0.00,VWS V14.01,2013-11-25 07:36:00,
2013-11-25 01:41:00,29.5,19.9,29.89,SW,219,10.0,19.0,67,0.00,,,0.00,VWS V14.01,2013-11-25 07:41:00,
2013-11-25 01:46:00,29.5,19.9,29.89,SW,227,13.0,20.0,67,0.00,,,0.00,VWS V14.01,2013-11-25 07:46:00,
2013-11-25 01:51:00,29.4,19.8,29.88,SW,231,12.0,20.0,67,0.00,,,0.00,VWS V14.01,2013-11-25 07:51:00,
2013-11-25 01:56:00,29.4,19.8,29.88,WSW,238,11.0,20.0,67,0.00,,,0.00,VWS V14.01,2013-11-25 07:56:00,
2013-11-25 02:00:00,29.4,20.2,29.88,SW,235,15.0,20.0,68,0.00,,,0.00,VWS V14.01,2013-11-25 08:00:00,
2013-11-25 02:01:00,29.4,20.2,29.88,SW,236,16.0,16.0,68,0.00,,,0.00,VWS V14.01,2013-11-25 08:01:00,
2013-11-25 02:06:00,29.4,20.2,29.88,SW,233,7.0,16.0,68,0.00,,,0.00,VWS V14.01,2013-11-25 08:06:00,
2013-11-25 02:11:00,29.4,20.2,29.88,SW,225,11.0,19.0,68,0.00,,,0.00,VWS V14.01,2013-11-25 08:11:00,
2013-11-25 02:16:00,29.4,20.5,29.88,SW,226,13.0,19.0,69,0.00,,,0.00,VWS V14.01,2013-11-25 08:16:00,
2013-11-25 02:21:00,29.5,20.6,29.87,SW,223,9.0,19.0,69,0.00,,,0.00,VWS V14.01,2013-11-25 08:21:00,
2013-11-25 02:26:00,29.5,20.6,29.88,SW,220,7.0,19.0,69,0.00,,,0.00,VWS V14.01,2013-11-25 08:26:00,
2013-11-25 02:30:00,29.4,20.5,29.88,SW,236,9.0,9.0,69,0.00,,,0.00,VWS V14.01,2013-11-25 08:30:00,
2013-11-25 02:35:00,29.3,20.7,29.87,SW,217,9.0,13.0,70,0.00,,,0.00,VWS V14.01,2013-11-25 08:35:00,
2013-11-25 02:40:00,29.4,20.8,29.88,SSW,199,5.0,15.0,70,0.00,,,0.00,VWS V14.01,2013-11-25 08:40:00,
2013-11-25 02:45:00,29.3,20.7,29.88,SSW,199,5.0,15.0,70,0.00,,,0.00,VWS V14.01,2013-11-25 08:45:00,
2013-11-25 02:50:00,29.4,20.8,29.88,SW,215,8.0,15.0,70,0.00,,,0.00,VWS V14.01,2013-11-25 08:50:00,
2013-11-25 02:55:00,29.4,21.2,29.87,SW,227,7.0,15.0,71,0.00,,,0.00,VWS V14.01,2013-11-25 08:55:00,
2013-11-25 03:00:00,29.5,21.3,29.87,WSW,237,9.0,10.0,71,0.00,,,0.00,VWS V14.01,2013-11-25 09:00:00,
2013-11-25 03:05:00,29.5,21.3,29.87,SW,234,9.0,14.0,71,0.00,,,0.00,VWS V14.01,2013-11-25 09:05:00,
2013-11-25 03:10:00,29.5,21.3,29.87,SSW,197,7.0,14.0,71,0.00,,,0.00,VWS V14.01,2013-11-25 09:10:00,
2013-11-25 03:16:00,29.4,21.2,29.86,SW,219,8.0,14.0,71,0.00,,,0.00,VWS V14.01,2013-11-25 09:16:00,
2013-11-25 03:21:00,29.4,21.2,29.86,SW,225,9.0,15.0,71,0.00,,,0.00,VWS V14.01,2013-11-25 09:21:00,
2013-11-25 03:25:00,29.4,21.5,29.85,SW,214,9.0,15.0,72,0.00,,,0.00,VWS V14.01,2013-11-25 09:25:00,
2013-11-25 03:30:00,29.4,21.5,29.85,SSW,209,9.0,9.0,72,0.00,,,0.00,VWS V14.01,2013-11-25 09:30:00,
2013-11-25 03:36:00,29.4,21.5,29.85,WSW,247,8.0,16.0,72,0.00,,,0.00,VWS V14.01,2013-11-25 09:36:00,
2013-11-25 03:40:00,29.4,21.5,29.85,SW,225,9.0,16.0,72,0.00,,,0.00,VWS V14.01,2013-11-25 09:40:00,
2013-11-25 03:45:00,29.5,21.6,29.86,SW,216,6.0,18.0,72,0.00,,,0.00,VWS V14.01,2013-11-25 09:45:00,
2013-11-25 03:50:00,29.4,21.8,29.86,SW,224,6.0,18.0,73,0.00,,,0.00,VWS V14.01,2013-11-25 09:50:00,
2013-11-25 03:56:00,29.3,21.7,29.86,SW,236,13.0,18.0,73,0.00,,,0.00,VWS V14.01,2013-11-25 09:56:00,
2013-11-25 04:00:00,29.3,21.7,29.86,SW,220,9.0,18.0,73,0.00,,,0.00,VWS V14.01,2013-11-25 10:00:00,
2013-11-25 04:01:00,29.3,21.7,29.86,SSW,212,11.0,11.0,73,0.00,,,0.00,VWS V14.01,2013-11-25 10:01:00,
2013-11-25 04:06:00,29.3,22.1,29.86,SSW,206,6.0,12.0,74,0.00,,,0.00,VWS V14.01,2013-11-25 10:06:00,
2013-11-25 04:11:00,29.4,22.1,29.87,SW,233,11.0,12.0,74,0.00,,,0.00,VWS V14.01,2013-11-25 10:11:00,
2013-11-25 04:16:00,29.5,22.2,29.87,SW,227,10.0,15.0,74,0.00,,,0.00,VWS V14.01,2013-11-25 10:16:00,
2013-11-25 04:21:00,29.7,22.4,29.87,SSW,198,6.0,15.0,74,0.00,,,0.00,VWS V14.01,2013-11-25 10:21:00,
2013-11-25 04:26:00,29.8,22.5,29.87,SSW,210,5.0,15.0,74,0.00,,,0.00,VWS V14.01,2013-11-25 10:26:00,
2013-11-25 04:30:00,29.8,22.5,29.87,SW,222,8.0,15.0,74,0.00,,,0.00,VWS V14.01,2013-11-25 10:30:00,
2013-11-25 04:31:00,29.9,22.6,29.87,WSW,246,7.0,8.0,74,0.00,,,0.00,VWS V14.01,2013-11-25 10:31:00,
2013-11-25 04:35:00,30.0,22.7,29.87,SW,215,5.0,13.0,74,0.00,,,0.00,VWS V14.01,2013-11-25 10:35:00,
2013-11-25 04:40:00,30.1,23.1,29.87,SW,230,6.0,13.0,75,0.00,,,0.00,VWS V14.01,2013-11-25 10:40:00,
2013-11-25 04:45:00,30.2,23.2,29.87,SW,231,12.0,14.0,75,0.00,,,0.00,VWS V14.01,2013-11-25 10:45:00,
2013-11-25 04:50:00,30.3,23.3,29.87,South,182,10.0,14.0,75,0.00,,,0.00,VWS V14.01,2013-11-25 10:50:00,
2013-11-25 04:55:00,30.3,23.3,29.87,SSW,195,6.0,14.0,75,0.00,,,0.00,VWS V14.01,2013-11-25 10:55:00,
2013-11-25 05:00:00,30.3,23.3,29.87,SW,218,5.0,5.0,75,0.00,,,0.00,VWS V14.01,2013-11-25 11:00:00,
2013-11-25 05:05:00,30.3,23.3,29.87,SW,224,3.0,11.0,75,0.00,,,0.00,VWS V14.01,2013-11-25 11:05:00,
2013-11-25 05:10:00,30.3,23.3,29.87,WSW,237,9.0,11.0,75,0.00,,,0.00,VWS V14.01,2013-11-25 11:10:00,
2013-11-25 05:15:00,30.3,23.3,29.87,West,274,3.0,11.0,75,0.00,,,0.00,VWS V14.01,2013-11-25 11:15:00,
2013-11-25 05:20:00,30.2,23.6,29.87,SW,220,8.0,11.0,76,0.00,,,0.00,VWS V14.01,2013-11-25 11:20:00,
2013-11-25 05:25:00,30.2,23.6,29.88,SW,221,6.0,11.0,76,0.00,,,0.00,VWS V14.01,2013-11-25 11:25:00,
2013-11-25 05:30:00,30.1,23.5,29.88,SW,214,5.0,5.0,76,0.00,,,0.00,VWS V14.01,2013-11-25 11:30:00,
2013-11-25 05:35:00,30.1,23.8,29.88,WSW,247,5.0,8.0,77,0.00,,,0.00,VWS V14.01,2013-11-25 11:35:00,
2013-11-25 05:40:00,30.1,23.8,29.88,SSW,212,5.0,11.0,77,0.00,,,0.00,VWS V14.01,2013-11-25 11:40:00,
2013-11-25 05:45:00,30.1,23.8,29.87,SSW,209,6.0,11.0,77,0.00,,,0.00,VWS V14.01,2013-11-25 11:45:00,
2013-11-25 05:50:00,29.7,23.4,29.87,SW,215,7.0,11.0,77,0.00,,,0.00,VWS V14.01,2013-11-25 11:50:00,
2013-11-25 05:55:00,29.3,23.3,29.87,SW,220,3.0,11.0,78,0.00,,,0.00,VWS V14.01,2013-11-25 11:55:00,
2013-11-25 06:00:00,29.1,23.4,29.87,SW,223,6.0,11.0,79,0.00,,,0.00,VWS V14.01,2013-11-25 12:00:00,
2013-11-25 06:05:00,28.8,23.1,29.87,SW,232,3.0,7.0,79,0.00,,,0.00,VWS V14.01,2013-11-25 12:05:00,
2013-11-25 06:10:00,28.3,22.9,29.88,SSW,207,3.0,7.0,80,0.00,,,0.00,VWS V14.01,2013-11-25 12:10:00,
2013-11-25 06:15:00,28.1,23.0,29.88,SW,222,3.0,7.0,81,0.00,,,0.00,VWS V14.01,2013-11-25 12:15:00,
2013-11-25 06:20:00,28.1,23.3,29.88,SW,218,0.0,7.0,82,0.00,,,0.00,VWS V14.01,2013-11-25 12:20:00,
2013-11-25 06:25:00,27.8,23.0,29.88,SW,223,2.0,7.0,82,0.00,,,0.00,VWS V14.01,2013-11-25 12:25:00,
2013-11-25 06:30:00,27.4,22.6,29.88,SSW,210,3.0,7.0,82,0.00,,,0.00,VWS V14.01,2013-11-25 12:30:00,
2013-11-25 06:35:00,27.2,22.7,29.88,WSW,241,2.0,5.0,83,0.00,,,0.00,VWS V14.01,2013-11-25 12:35:00,
2013-11-25 06:40:00,26.9,22.7,29.88,SW,218,4.0,6.0,84,0.00,,,0.00,VWS V14.01,2013-11-25 12:40:00,
2013-11-25 06:45:00,27.1,23.2,29.88,SSW,213,4.0,6.0,85,0.00,,,0.00,VWS V14.01,2013-11-25 12:45:00,
2013-11-25 06:50:00,27.3,23.4,29.88,SSW,208,1.0,6.0,85,0.00,,,0.00,VWS V14.01,2013-11-25 12:50:00,
2013-11-25 06:55:00,26.9,23.0,29.88,SW,227,3.0,6.0,85,0.00,,,0.00,VWS V14.01,2013-11-25 12:55:00,
2013-11-25 07:00:00,27.0,23.1,29.88,SW,225,6.0,6.0,85,0.00,,,0.00,VWS V14.01,2013-11-25 13:00:00,
2013-11-25 07:05:00,27.1,23.2,29.88,WSW,243,1.0,5.0,85,0.00,,,0.00,VWS V14.01,2013-11-25 13:05:00,
2013-11-25 07:10:00,27.3,23.7,29.89,WSW,243,1.0,5.0,86,0.00,,,0.00,VWS V14.01,2013-11-25 13:10:00,
2013-11-25 07:15:00,27.6,24.0,29.89,West,270,4.0,5.0,86,0.00,,,0.00,VWS V14.01,2013-11-25 13:15:00,
2013-11-25 07:20:00,27.9,24.0,29.89,WSW,256,1.0,5.0,85,0.00,,,0.00,VWS V14.01,2013-11-25 13:20:00,
2013-11-25 07:25:00,28.1,24.5,29.89,West,260,3.0,7.0,86,0.00,,,0.00,VWS V14.01,2013-11-25 13:25:00,
2013-11-25 07:30:00,28.3,24.4,29.89,West,260,3.0,7.0,85,0.00,,,0.00,VWS V14.01,2013-11-25 13:30:00,
2013-11-25 07:35:00,28.5,24.6,29.90,WSW,244,1.0,6.0,85,0.00,,,0.00,VWS V14.01,2013-11-25 13:35:00,
2013-11-25 07:40:00,28.7,24.8,29.90,West,271,3.0,6.0,85,0.00,,,0.00,VWS V14.01,2013-11-25 13:40:00,
2013-11-25 07:45:00,28.6,24.7,29.90,West,265,3.0,6.0,85,0.00,,,0.00,VWS V14.01,2013-11-25 13:45:00,
2013-11-25 07:50:00,28.4,24.8,29.89,WSW,238,3.0,6.0,86,0.00,,,0.00,VWS V14.01,2013-11-25 13:50:00,
2013-11-25 07:55:00,28.1,24.5,29.90,West,264,2.0,6.0,86,0.00,,,0.00,VWS V14.01,2013-11-25 13:55:00,
2013-11-25 08:00:00,27.9,24.3,29.90,WSW,248,4.0,6.0,86,0.00,,,0.00,VWS V14.01,2013-11-25 14:00:00,
2013-11-25 08:05:00,28.0,24.6,29.90,West,270,2.0,4.0,87,0.00,,,0.00,VWS V14.01,2013-11-25 14:05:00,
2013-11-25 08:10:00,28.1,24.7,29.90,WSW,244,1.0,4.0,87,0.00,,,0.00,VWS V14.01,2013-11-25 14:10:00,
2013-11-25 08:15:00,28.4,25.3,29.90,WSW,240,4.0,6.0,88,0.00,,,0.00,VWS V14.01,2013-11-25 14:15:00,
2013-11-25 08:20:00,29.0,25.6,29.90,SW,232,2.0,6.0,87,0.00,,,0.00,VWS V14.01,2013-11-25 14:20:00,
2013-11-25 08:25:00,30.2,26.5,29.90,WSW,254,2.0,6.0,86,0.00,,,0.00,VWS V14.01,2013-11-25 14:25:00,
2013-11-25 08:30:00,31.1,27.1,29.90,West,262,2.0,8.0,85,0.00,,,0.00,VWS V14.01,2013-11-25 14:30:00,
2013-11-25 08:35:00,31.3,27.0,29.91,West,278,2.0,7.0,84,0.00,,,0.00,VWS V14.01,2013-11-25 14:35:00,
2013-11-25 08:40:00,31.5,27.2,29.91,West,263,2.0,8.0,84,0.00,,,0.00,VWS V14.01,2013-11-25 14:40:00,
2013-11-25 08:45:00,31.6,27.3,29.91,WSW,257,4.0,11.0,84,0.00,,,0.00,VWS V14.01,2013-11-25 14:45:00,
2013-11-25 08:50:00,31.8,27.5,29.91,West,267,3.0,11.0,84,0.00,,,0.00,VWS V14.01,2013-11-25 14:50:00,
2013-11-25 08:55:00,32.0,27.4,29.92,West,273,3.0,11.0,83,0.00,,,0.00,VWS V14.01,2013-11-25 14:55:00,
2013-11-25 09:00:00,32.1,27.5,29.92,West,275,4.0,11.0,83,0.00,,,0.00,VWS V14.01,2013-11-25 15:00:00,
2013-11-25 09:05:00,32.4,27.8,29.92,West,268,4.0,8.0,83,0.00,,,0.00,VWS V14.01,2013-11-25 15:05:00,
2013-11-25 09:10:00,32.6,28.0,29.92,WSW,258,7.0,9.0,83,0.00,,,0.00,VWS V14.01,2013-11-25 15:10:00,
2013-11-25 09:15:00,33.0,28.1,29.92,WNW,288,8.0,10.0,82,0.00,,,0.00,VWS V14.01,2013-11-25 15:15:00,
2013-11-25 09:20:00,33.4,28.2,29.92,West,269,8.0,10.0,81,0.00,,,0.00,VWS V14.01,2013-11-25 15:20:00,
2013-11-25 09:25:00,33.7,28.5,29.93,West,271,7.0,10.0,81,0.00,,,0.00,VWS V14.01,2013-11-25 15:25:00,
2013-11-25 09:30:00,33.9,28.4,29.93,West,275,8.0,11.0,80,0.00,,,0.00,VWS V14.01,2013-11-25 15:30:00,
2013-11-25 09:35:00,34.2,28.7,29.93,West,271,4.0,10.0,80,0.00,,,0.00,VWS V14.01,2013-11-25 15:35:00,
2013-11-25 09:40:00,34.4,28.6,29.93,West,264,4.0,11.0,79,0.00,,,0.00,VWS V14.01,2013-11-25 15:40:00,
2013-11-25 09:45:00,34.6,28.5,29.93,WNW,302,8.0,14.0,78,0.00,,,0.00,VWS V14.01,2013-11-25 15:45:00,
2013-11-25 09:50:00,34.7,28.5,29.93,SW,234,7.0,15.0,78,0.00,,,0.00,VWS V14.01,2013-11-25 15:50:00,
2013-11-25 09:55:00,34.9,28.4,29.93,WNW,290,4.0,15.0,77,0.00,,,0.00,VWS V14.01,2013-11-25 15:55:00,
2013-11-25 10:00:00,35.0,28.5,29.93,West,268,8.0,16.0,77,0.00,,,0.00,VWS V14.01,2013-11-25 16:00:00,
2013-11-25 10:05:00,35.2,28.7,29.93,West,279,9.0,11.0,77,0.00,,,0.00,VWS V14.01,2013-11-25 16:05:00,
2013-11-25 10:10:00,35.5,28.7,29.93,NW,311,8.0,14.0,76,0.00,,,0.00,VWS V14.01,2013-11-25 16:10:00,
2013-11-25 10:15:00,35.5,28.7,29.94,West,275,8.0,16.0,76,0.00,,,0.00,VWS V14.01,2013-11-25 16:15:00,
2013-11-25 10:20:00,35.7,28.6,29.94,WNW,296,9.0,16.0,75,0.00,,,0.00,VWS V14.01,2013-11-25 16:20:00,
2013-11-25 10:25:00,35.9,28.8,29.94,WNW,299,7.0,16.0,75,0.00,,,0.00,VWS V14.01,2013-11-25 16:25:00,
2013-11-25 10:30:00,36.4,28.9,29.94,West,279,10.0,16.0,74,0.00,,,0.00,VWS V14.01,2013-11-25 16:30:00,
2013-11-25 10:35:00,36.8,28.6,29.93,NNW,329,6.0,20.0,72,0.00,,,0.00,VWS V14.01,2013-11-25 16:35:00,
2013-11-25 10:40:00,37.2,28.7,29.93,WNW,299,10.0,20.0,71,0.00,,,0.00,VWS V14.01,2013-11-25 16:40:00,
2013-11-25 10:44:00,37.1,28.6,29.93,NW,306,11.0,20.0,71,0.00,,,0.00,VWS V14.01,2013-11-25 16:44:00,
2013-11-25 10:49:00,37.4,28.2,29.93,West,275,13.0,20.0,69,0.00,,,0.00,VWS V14.01,2013-11-25 16:49:00,
2013-11-25 10:54:00,37.7,28.5,29.93,WSW,249,10.0,20.0,69,0.00,,,0.00,VWS V14.01,2013-11-25 16:54:00,
2013-11-25 10:59:00,37.6,28.0,29.93,WSW,243,13.0,20.0,68,0.00,,,0.00,VWS V14.01,2013-11-25 16:59:00,
2013-11-25 11:04:00,37.3,27.4,29.93,WNW,300,8.0,16.0,67,0.00,,,0.00,VWS V14.01,2013-11-25 17:04:00,
2013-11-25 11:09:00,37.6,27.6,29.93,WNW,285,11.0,16.0,67,0.00,,,0.00,VWS V14.01,2013-11-25 17:09:00,
2013-11-25 11:14:00,37.5,27.2,29.93,WNW,283,10.0,17.0,66,0.00,,,0.00,VWS V14.01,2013-11-25 17:14:00,
2013-11-25 11:19:00,37.4,26.7,29.93,WNW,290,8.0,19.0,65,0.00,,,0.00,VWS V14.01,2013-11-25 17:19:00,
2013-11-25 11:24:00,37.7,27.0,29.93,WNW,296,11.0,19.0,65,0.00,,,0.00,VWS V14.01,2013-11-25 17:24:00,
2013-11-25 11:29:00,38.7,27.6,29.93,NW,308,10.0,19.0,64,0.00,,,0.00,VWS V14.01,2013-11-25 17:29:00,
2013-11-25 11:30:00,38.8,27.3,29.93,WNW,302,15.0,19.0,63,0.00,,,0.00,VWS V14.01,2013-11-25 17:30:00,
2013-11-25 11:34:00,38.7,26.4,29.93,NW,311,10.0,21.0,61,0.00,,,0.00,VWS V14.01,2013-11-25 17:34:00,
2013-11-25 11:39:00,38.1,25.9,29.93,WNW,302,12.0,21.0,61,0.00,,,0.00,VWS V14.01,2013-11-25 17:39:00,
2013-11-25 11:44:00,38.0,26.5,29.93,NNW,336,8.0,21.0,63,0.00,,,0.00,VWS V14.01,2013-11-25 17:44:00,
2013-11-25 11:49:00,37.7,25.9,29.93,NNW,334,9.0,21.0,62,0.00,,,0.00,VWS V14.01,2013-11-25 17:49:00,
2013-11-25 11:54:00,37.6,25.8,29.93,WNW,296,7.0,21.0,62,0.00,,,0.00,VWS V14.01,2013-11-25 17:54:00,
2013-11-25 11:59:00,37.4,25.6,29.93,NW,304,9.0,21.0,62,0.00,,,0.00,VWS V14.01,2013-11-25 17:59:00,
2013-11-25 12:04:00,37.3,25.5,29.93,NW,319,18.0,18.0,62,0.00,,,0.00,VWS V14.01,2013-11-25 18:04:00,
2013-11-25 12:09:00,37.3,25.5,29.93,West,281,11.0,18.0,62,0.00,,,0.00,VWS V14.01,2013-11-25 18:09:00,
2013-11-25 12:14:00,37.3,25.5,29.93,NW,307,10.0,18.0,62,0.00,,,0.00,VWS V14.01,2013-11-25 18:14:00,
2013-11-25 12:19:00,37.4,25.2,29.93,WNW,291,8.0,18.0,61,0.00,,,0.00,VWS V14.01,2013-11-25 18:19:00,
2013-11-25 12:24:00,37.4,25.2,29.93,NW,308,8.0,18.0,61,0.00,,,0.00,VWS V14.01,2013-11-25 18:24:00,
2013-11-25 12:29:00,37.7,25.1,29.93,NW,309,10.0,18.0,60,0.00,,,0.00,VWS V14.01,2013-11-25 18:29:00,
2013-11-25 12:30:00,37.7,25.1,29.93,NW,309,14.0,18.0,60,0.00,,,0.00,VWS V14.01,2013-11-25 18:30:00,
2013-11-25 12:34:00,37.8,25.2,29.93,WNW,294,8.0,19.0,60,0.00,,,0.00,VWS V14.01,2013-11-25 18:34:00,
2013-11-25 12:39:00,38.0,25.0,29.93,WSW,256,9.0,19.0,59,0.00,,,0.00,VWS V14.01,2013-11-25 18:39:00,
2013-11-25 12:44:00,38.0,25.0,29.93,NW,325,14.0,19.0,59,0.00,,,0.00,VWS V14.01,2013-11-25 18:44:00,
2013-11-25 12:49:00,37.9,24.9,29.93,NW,324,10.0,23.0,59,0.00,,,0.00,VWS V14.01,2013-11-25 18:49:00,
2013-11-25 12:54:00,38.0,24.5,29.93,WNW,292,17.0,23.0,58,0.00,,,0.00,VWS V14.01,2013-11-25 18:54:00,
2013-11-25 12:59:00,38.0,24.1,29.93,NNW,342,15.0,23.0,57,0.00,,,0.00,VWS V14.01,2013-11-25 18:59:00,
2013-11-25 13:00:00,38.1,24.2,29.93,NW,319,10.0,23.0,57,0.00,,,0.00,VWS V14.01,2013-11-25 19:00:00,
2013-11-25 13:04:00,38.3,24.8,29.93,WNW,290,15.0,20.0,58,0.00,,,0.00,VWS V14.01,2013-11-25 19:04:00,
2013-11-25 13:09:00,38.4,25.3,29.93,WNW,302,11.0,24.0,59,0.00,,,0.00,VWS V14.01,2013-11-25 19:09:00,
2013-11-25 13:14:00,38.5,25.4,29.93,WNW,286,16.0,24.0,59,0.00,,,0.00,VWS V14.01,2013-11-25 19:14:00,
2013-11-25 13:19:00,38.2,25.5,29.93,WNW,299,9.0,24.0,60,0.00,,,0.00,VWS V14.01,2013-11-25 19:19:00,
2013-11-25 13:24:00,38.0,25.8,29.93,WNW,291,5.0,24.0,61,0.00,,,0.00,VWS V14.01,2013-11-25 19:24:00,
2013-11-25 13:29:00,38.2,26.0,29.93,West,270,12.0,24.0,61,0.00,,,0.00,VWS V14.01,2013-11-25 19:29:00,
2013-11-25 13:30:00,38.0,25.8,29.93,West,276,11.0,24.0,61,0.00,,,0.00,VWS V14.01,2013-11-25 19:30:00,
2013-11-25 13:34:00,37.8,25.6,29.94,West,269,9.0,19.0,61,0.00,,,0.00,VWS V14.01,2013-11-25 19:34:00,
2013-11-25 13:39:00,37.7,25.5,29.94,WNW,289,13.0,19.0,61,0.00,,,0.00,VWS V14.01,2013-11-25 19:39:00,
2013-11-25 13:44:00,37.5,25.3,29.94,West,277,12.0,19.0,61,0.00,,,0.00,VWS V14.01,2013-11-25 19:44:00,
2013-11-25 13:49:00,37.5,25.3,29.94,WNW,292,9.0,19.0,61,0.00,,,0.00,VWS V14.01,2013-11-25 19:49:00,
2013-11-25 13:54:00,37.5,25.3,29.94,WNW,296,9.0,19.0,61,0.00,,,0.00,VWS V14.01,2013-11-25 19:54:00,
2013-11-25 13:59:00,37.6,24.6,29.94,WNW,303,10.0,19.0,59,0.00,,,0.00,VWS V14.01,2013-11-25 19:59:00,
2013-11-25 14:00:00,37.6,24.2,29.94,NW,306,12.0,19.0,58,0.00,,,0.00,VWS V14.01,2013-11-25 20:00:00,
2013-11-25 14:04:00,37.6,24.2,29.94,WNW,285,12.0,21.0,58,0.00,,,0.00,VWS V14.01,2013-11-25 20:04:00,
2013-11-25 14:09:00,37.5,23.7,29.94,West,281,8.0,22.0,57,0.00,,,0.00,VWS V14.01,2013-11-25 20:09:00,
2013-11-25 14:14:00,37.5,23.2,29.94,NW,316,9.0,22.0,56,0.00,,,0.00,VWS V14.01,2013-11-25 20:14:00,
2013-11-25 14:19:00,37.2,23.4,29.94,WNW,294,8.0,22.0,57,0.00,,,0.00,VWS V14.01,2013-11-25 20:19:00,
2013-11-25 14:24:00,37.0,23.6,29.95,NW,307,8.0,22.0,58,0.00,,,0.00,VWS V14.01,2013-11-25 20:24:00,
2013-11-25 14:29:00,36.8,23.8,29.95,WNW,296,7.0,22.0,59,0.00,,,0.00,VWS V14.01,2013-11-25 20:29:00,
2013-11-25 14:30:00,36.8,23.8,29.95,WNW,302,7.0,22.0,59,0.00,,,0.00,VWS V14.01,2013-11-25 20:30:00,
2013-11-25 14:34:00,36.7,23.7,29.95,WNW,282,6.0,12.0,59,0.00,,,0.00,VWS V14.01,2013-11-25 20:34:00,
2013-11-25 14:39:00,36.7,23.7,29.95,NW,311,9.0,14.0,59,0.00,,,0.00,VWS V14.01,2013-11-25 20:39:00,
2013-11-25 14:44:00,36.6,23.6,29.95,West,277,8.0,14.0,59,0.00,,,0.00,VWS V14.01,2013-11-25 20:44:00,
2013-11-25 14:49:00,36.6,23.6,29.95,WNW,294,12.0,14.0,59,0.00,,,0.00,VWS V14.01,2013-11-25 20:49:00,
2013-11-25 14:54:00,36.7,23.7,29.95,West,274,8.0,14.0,59,0.00,,,0.00,VWS V14.01,2013-11-25 20:54:00,
2013-11-25 14:59:00,36.7,23.7,29.95,NW,315,5.0,14.0,59,0.00,,,0.00,VWS V14.01,2013-11-25 20:59:00,
2013-11-25 15:00:00,36.7,23.7,29.96,WNW,289,4.0,14.0,59,0.00,,,0.00,VWS V14.01,2013-11-25 21:00:00,
2013-11-25 15:04:00,36.8,23.4,29.95,NW,311,5.0,11.0,58,0.00,,,0.00,VWS V14.01,2013-11-25 21:04:00,
2013-11-25 15:09:00,36.8,23.4,29.96,WNW,292,8.0,17.0,58,0.00,,,0.00,VWS V14.01,2013-11-25 21:09:00,
2013-11-25 15:14:00,36.8,23.4,29.96,WNW,294,8.0,17.0,58,0.00,,,0.00,VWS V14.01,2013-11-25 21:14:00,
2013-11-25 15:19:00,36.9,23.5,29.96,NW,308,9.0,18.0,58,0.00,,,0.00,VWS V14.01,2013-11-25 21:19:00,
2013-11-25 15:24:00,36.9,23.5,29.96,WNW,288,14.0,18.0,58,0.00,,,0.00,VWS V14.01,2013-11-25 21:24:00,
2013-11-25 15:29:00,36.9,23.5,29.96,West,275,10.0,18.0,58,0.00,,,0.00,VWS V14.01,2013-11-25 21:29:00,
2013-11-25 15:34:00,36.8,23.4,29.97,West,279,7.0,10.0,58,0.00,,,0.00,VWS V14.01,2013-11-25 21:34:00,
2013-11-25 15:39:00,36.7,23.3,29.97,West,280,3.0,10.0,58,0.00,,,0.00,VWS V14.01,2013-11-25 21:39:00,
2013-11-25 15:44:00,36.6,23.6,29.97,WNW,284,15.0,16.0,59,0.00,,,0.00,VWS V14.01,2013-11-25 21:44:00,
2013-11-25 15:49:00,36.6,23.6,29.97,West,273,11.0,16.0,59,0.00,,,0.00,VWS V14.01,2013-11-25 21:49:00,
2013-11-25 15:54:00,36.6,24.0,29.97,West,273,7.0,16.0,60,0.00,,,0.00,VWS V14.01,2013-11-25 21:54:00,
2013-11-25 15:59:00,36.5,24.0,29.97,West,269,8.0,16.0,60,0.00,,,0.00,VWS V14.01,2013-11-25 21:59:00,
2013-11-25 16:00:00,36.5,24.0,29.97,West,270,6.0,16.0,60,0.00,,,0.00,VWS V14.01,2013-11-25 22:00:00,
2013-11-25 16:04:00,36.4,24.2,29.97,West,275,11.0,13.0,61,0.00,,,0.00,VWS V14.01,2013-11-25 22:04:00,
2013-11-25 16:09:00,36.4,24.2,29.98,West,271,7.0,15.0,61,0.00,,,0.00,VWS V14.01,2013-11-25 22:09:00,
2013-11-25 16:14:00,36.2,24.1,29.98,West,273,3.0,15.0,61,0.00,,,0.00,VWS V14.01,2013-11-25 22:14:00,
2013-11-25 16:19:00,36.0,24.6,29.98,West,278,8.0,15.0,63,0.00,,,0.00,VWS V14.01,2013-11-25 22:19:00,
2013-11-25 16:24:00,36.0,25.0,29.98,WNW,286,7.0,15.0,64,0.00,,,0.00,VWS V14.01,2013-11-25 22:24:00,
2013-11-25 16:29:00,35.9,25.3,29.98,West,271,10.0,15.0,65,0.00,,,0.00,VWS V14.01,2013-11-25 22:29:00,
2013-11-25 16:30:00,35.9,25.3,29.98,West,273,10.0,15.0,65,0.00,,,0.00,VWS V14.01,2013-11-25 22:30:00,
2013-11-25 16:34:00,35.9,25.7,29.98,WNW,284,13.0,15.0,66,0.00,,,0.00,VWS V14.01,2013-11-25 22:34:00,
2013-11-25 16:39:00,35.8,25.9,29.98,West,279,7.0,20.0,67,0.00,,,0.00,VWS V14.01,2013-11-25 22:39:00,
2013-11-25 16:44:00,35.7,25.8,29.98,West,271,8.0,20.0,67,0.00,,,0.00,VWS V14.01,2013-11-25 22:44:00,
2013-11-25 16:49:00,35.6,25.7,29.98,West,279,9.0,20.0,67,0.00,,,0.00,VWS V14.01,2013-11-25 22:49:00,
2013-11-25 16:54:00,35.5,25.6,29.98,WSW,256,8.0,20.0,67,0.00,,,0.00,VWS V14.01,2013-11-25 22:54:00,
2013-11-25 16:59:00,35.5,25.6,29.98,West,265,10.0,20.0,67,0.00,,,0.00,VWS V14.01,2013-11-25 22:59:00,
2013-11-25 17:04:00,35.5,25.6,29.98,West,279,6.0,11.0,67,0.00,,,0.00,VWS V14.01,2013-11-25 23:04:00,
2013-11-25 17:09:00,35.4,25.5,29.98,West,273,7.0,11.0,67,0.00,,,0.00,VWS V14.01,2013-11-25 23:09:00,
2013-11-25 17:14:00,35.4,25.5,29.98,West,276,3.0,12.0,67,0.00,,,0.00,VWS V14.01,2013-11-25 23:14:00,
2013-11-25 17:19:00,35.3,25.5,29.98,West,265,7.0,12.0,67,0.00,,,0.00,VWS V14.01,2013-11-25 23:19:00,
2013-11-25 17:24:00,35.3,25.5,29.98,West,273,6.0,12.0,67,0.00,,,0.00,VWS V14.01,2013-11-25 23:24:00,
2013-11-25 17:29:00,35.3,25.5,29.98,West,278,7.0,12.0,67,0.00,,,0.00,VWS V14.01,2013-11-25 23:29:00,
2013-11-25 17:34:00,35.2,25.4,29.98,West,276,7.0,11.0,67,0.00,,,0.00,VWS V14.01,2013-11-25 23:34:00,
2013-11-25 17:38:00,35.2,25.7,29.98,West,259,7.0,12.0,68,0.00,,,0.00,VWS V14.01,2013-11-25 23:38:00,
2013-11-25 17:43:00,35.1,25.6,29.98,West,277,6.0,13.0,68,0.00,,,0.00,VWS V14.01,2013-11-25 23:43:00,
2013-11-25 17:48:00,35.1,25.6,29.99,WNW,285,6.0,13.0,68,0.00,,,0.00,VWS V14.01,2013-11-25 23:48:00,
2013-11-25 17:53:00,35.1,25.6,29.99,WNW,293,10.0,13.0,68,0.00,,,0.00,VWS V14.01,2013-11-25 23:53:00,
2013-11-25 17:58:00,35.2,25.7,29.99,NW,313,10.0,19.0,68,0.00,,,0.00,VWS V14.01,2013-11-25 23:58:00,
2013-11-25 18:00:00,35.2,25.7,29.99,NW,305,5.0,19.0,68,0.00,,,0.00,VWS V14.01,2013-11-26 00:00:00,
2013-11-25 18:03:00,35.2,25.7,29.99,NW,313,5.0,11.0,68,0.00,,,0.00,VWS V14.01,2013-11-26 00:03:00,
2013-11-25 18:08:00,35.2,26.1,29.99,WSW,256,10.0,11.0,69,0.00,,,0.00,VWS V14.01,2013-11-26 00:08:00,
2013-11-25 18:13:00,35.1,26.0,29.99,NW,314,6.0,14.0,69,0.00,,,0.00,VWS V14.01,2013-11-26 00:13:00,
2013-11-25 18:18:00,35.2,26.1,29.99,WNW,288,15.0,17.0,69,0.00,,,0.00,VWS V14.01,2013-11-26 00:18:00,
2013-11-25 18:23:00,35.1,26.0,30.00,WNW,298,5.0,19.0,69,0.00,,,0.00,VWS V14.01,2013-11-26 00:23:00,
2013-11-25 18:28:00,35.0,26.2,30.00,WNW,290,10.0,19.0,70,0.00,,,0.00,VWS V14.01,2013-11-26 00:28:00,
2013-11-25 18:33:00,34.8,25.7,30.00,NW,323,9.0,21.0,69,0.00,,,0.00,VWS V14.01,2013-11-26 00:33:00,
2013-11-25 18:38:00,34.6,25.1,30.01,WNW,296,14.0,21.0,68,0.00,,,0.00,VWS V14.01,2013-11-26 00:38:00,
2013-11-25 18:43:00,34.3,24.1,30.01,NNW,331,11.0,21.0,66,0.00,,,0.00,VWS V14.01,2013-11-26 00:43:00,
2013-11-25 18:48:00,34.1,24.0,30.01,NW,306,15.0,21.0,66,0.00,,,0.00,VWS V14.01,2013-11-26 00:48:00,
2013-11-25 18:53:00,33.8,24.0,30.01,WNW,283,14.0,21.0,67,0.00,,,0.00,VWS V14.01,2013-11-26 00:53:00,
2013-11-25 18:58:00,33.5,22.3,30.01,NW,323,19.0,21.0,63,0.00,,,0.00,VWS V14.01,2013-11-26 00:58:00,
2013-11-25 19:03:00,33.3,21.3,30.01,WNW,292,18.0,26.0,61,0.00,,,0.00,VWS V14.01,2013-11-26 01:03:00,
2013-11-25 19:08:00,33.0,20.6,30.02,NW,313,15.0,26.0,60,0.00,,,0.00,VWS V14.01,2013-11-26 01:08:00,
2013-11-25 19:13:00,32.8,20.5,30.02,WNW,292,13.0,26.0,60,0.00,,,0.00,VWS V14.01,2013-11-26 01:13:00,
2013-11-25 19:18:00,32.6,20.3,30.02,West,277,19.0,26.0,60,0.00,,,0.00,VWS V14.01,2013-11-26 01:18:00,
2013-11-25 19:23:00,32.4,20.1,30.02,NW,319,16.0,26.0,60,0.00,,,0.00,VWS V14.01,2013-11-26 01:23:00,
2013-11-25 19:28:00,32.4,20.5,30.02,NW,306,8.0,26.0,61,0.00,,,0.00,VWS V14.01,2013-11-26 01:28:00,
2013-11-25 19:30:00,32.3,20.4,30.02,WNW,298,10.0,26.0,61,0.00,,,0.00,VWS V14.01,2013-11-26 01:30:00,
2013-11-25 19:33:00,32.3,20.4,30.02,NW,318,15.0,18.0,61,0.00,,,0.00,VWS V14.01,2013-11-26 01:33:00,
2013-11-25 19:38:00,32.1,19.0,30.02,NNW,340,14.0,22.0,58,0.00,,,0.00,VWS V14.01,2013-11-26 01:38:00,
2013-11-25 19:43:00,31.9,17.6,30.03,WNW,293,8.0,25.0,55,0.00,,,0.00,VWS V14.01,2013-11-26 01:43:00,
2013-11-25 19:48:00,31.6,16.9,30.03,NNW,333,13.0,25.0,54,0.00,,,0.00,VWS V14.01,2013-11-26 01:48:00,
2013-11-25 19:53:00,31.5,16.4,30.03,NW,321,12.0,29.0,53,0.00,,,0.00,VWS V14.01,2013-11-26 01:53:00,
2013-11-25 19:58:00,31.4,15.8,30.03,NNW,332,12.0,29.0,52,0.00,,,0.00,VWS V14.01,2013-11-26 01:58:00,
2013-11-25 20:00:00,31.3,15.7,30.03,NW,319,18.0,29.0,52,0.00,,,0.00,VWS V14.01,2013-11-26 02:00:00,
2013-11-25 20:03:00,31.2,15.6,30.03,NW,322,13.0,18.0,52,0.00,,,0.00,VWS V14.01,2013-11-26 02:03:00,
2013-11-25 20:08:00,31.1,15.1,30.03,NNW,328,15.0,19.0,51,0.00,,,0.00,VWS V14.01,2013-11-26 02:08:00,
2013-11-25 20:13:00,31.0,15.4,30.03,NW,323,12.0,22.0,52,0.00,,,0.00,VWS V14.01,2013-11-26 02:13:00,
2013-11-25 20:18:00,30.8,15.3,30.04,NW,321,8.0,22.0,52,0.00,,,0.00,VWS V14.01,2013-11-26 02:18:00,
2013-11-25 20:23:00,30.7,15.6,30.03,NW,313,14.0,22.0,53,0.00,,,0.00,VWS V14.01,2013-11-26 02:23:00,
2013-11-25 20:28:00,30.6,15.5,30.04,NW,311,10.0,22.0,53,0.00,,,0.00,VWS V14.01,2013-11-26 02:28:00,
2013-11-25 20:30:00,30.6,15.5,30.04,NNW,328,6.0,22.0,53,0.00,,,0.00,VWS V14.01,2013-11-26 02:30:00,
2013-11-25 20:33:00,30.5,15.4,30.04,NNW,340,9.0,11.0,53,0.00,,,0.00,VWS V14.01,2013-11-26 02:33:00,
2013-11-25 20:38:00,30.4,15.8,30.03,NW,318,4.0,14.0,54,0.00,,,0.00,VWS V14.01,2013-11-26 02:38:00,
2013-11-25 20:43:00,30.3,16.1,30.03,WNW,302,4.0,21.0,55,0.00,,,0.00,VWS V14.01,2013-11-26 02:43:00,
2013-11-25 20:48:00,30.2,16.4,30.04,West,277,13.0,21.0,56,0.00,,,0.00,VWS V14.01,2013-11-26 02:48:00,
2013-11-25 20:53:00,30.1,16.3,30.04,NW,313,14.0,23.0,56,0.00,,,0.00,VWS V14.01,2013-11-26 02:53:00,
2013-11-25 20:58:00,30.0,16.2,30.04,NW,317,17.0,23.0,56,0.00,,,0.00,VWS V14.01,2013-11-26 02:58:00,
2013-11-25 21:00:00,29.8,16.0,30.04,NNW,327,14.0,23.0,56,0.00,,,0.00,VWS V14.01,2013-11-26 03:00:00,
2013-11-25 21:03:00,29.7,16.4,30.04,NW,309,14.0,17.0,57,0.00,,,0.00,VWS V14.01,2013-11-26 03:03:00,
2013-11-25 21:08:00,29.6,16.2,30.04,NW,305,10.0,20.0,57,0.00,,,0.00,VWS V14.01,2013-11-26 03:08:00,
2013-11-25 21:13:00,29.4,16.1,30.04,NW,325,14.0,20.0,57,0.00,,,0.00,VWS V14.01,2013-11-26 03:13:00,
2013-11-25 21:18:00,29.3,16.0,30.04,NNW,331,8.0,20.0,57,0.00,,,0.00,VWS V14.01,2013-11-26 03:18:00,
2013-11-25 21:23:00,29.2,15.9,30.04,WNW,296,9.0,20.0,57,0.00,,,0.00,VWS V14.01,2013-11-26 03:23:00,
2013-11-25 21:28:00,29.1,15.8,30.04,NW,323,17.0,20.0,57,0.00,,,0.00,VWS V14.01,2013-11-26 03:28:00,
2013-11-25 21:33:00,29.0,15.7,30.04,NNW,328,14.0,14.0,57,0.00,,,0.00,VWS V14.01,2013-11-26 03:33:00,
2013-11-25 21:38:00,29.0,15.7,30.04,NW,321,12.0,17.0,57,0.00,,,0.00,VWS V14.01,2013-11-26 03:38:00,
2013-11-25 21:43:00,28.9,16.0,30.04,NW,325,10.0,17.0,58,0.00,,,0.00,VWS V14.01,2013-11-26 03:43:00,
2013-11-25 21:48:00,28.8,15.9,30.04,NNW,327,12.0,17.0,58,0.00,,,0.00,VWS V14.01,2013-11-26 03:48:00,
2013-11-25 21:53:00,28.8,15.9,30.04,WNW,292,12.0,18.0,58,0.00,,,0.00,VWS V14.01,2013-11-26 03:53:00,
2013-11-25 21:58:00,28.7,16.2,30.04,WNW,300,13.0,20.0,59,0.00,,,0.00,VWS V14.01,2013-11-26 03:58:00,
2013-11-25 22:00:00,28.7,16.2,30.04,NNW,338,16.0,20.0,59,0.00,,,0.00,VWS V14.01,2013-11-26 04:00:00,
2013-11-25 22:03:00,28.6,16.1,30.04,NNW,331,14.0,16.0,59,0.00,,,0.00,VWS V14.01,2013-11-26 04:03:00,
2013-11-25 22:08:00,28.5,16.0,30.04,NW,323,10.0,16.0,59,0.00,,,0.00,VWS V14.01,2013-11-26 04:08:00,
2013-11-25 22:13:00,28.5,16.0,30.05,NW,318,8.0,19.0,59,0.00,,,0.00,VWS V14.01,2013-11-26 04:13:00,
2013-11-25 22:18:00,28.4,16.3,30.05,NW,313,9.0,19.0,60,0.00,,,0.00,VWS V14.01,2013-11-26 04:18:00,
2013-11-25 22:23:00,28.3,16.2,30.05,NW,319,13.0,20.0,60,0.00,,,0.00,VWS V14.01,2013-11-26 04:23:00,
2013-11-25 22:28:00,28.2,16.5,30.05,NW,325,11.0,20.0,61,0.00,,,0.00,VWS V14.01,2013-11-26 04:28:00,
2013-11-25 22:30:00,28.1,16.4,30.05,NW,313,8.0,20.0,61,0.00,,,0.00,VWS V14.01,2013-11-26 04:30:00,
2013-11-25 22:33:00,28.1,16.4,30.06,NNW,333,6.0,14.0,61,0.00,,,0.00,VWS V14.01,2013-11-26 04:33:00,
2013-11-25 22:38:00,27.9,16.2,30.06,NNW,346,9.0,20.0,61,0.00,,,0.00,VWS V14.01,2013-11-26 04:38:00,
2013-11-25 22:43:00,27.7,16.4,30.06,NW,324,10.0,20.0,62,0.00,,,0.00,VWS V14.01,2013-11-26 04:43:00,
2013-11-25 22:48:00,27.6,16.3,30.06,WNW,303,16.0,20.0,62,0.00,,,0.00,VWS V14.01,2013-11-26 04:48:00,
2013-11-25 22:53:00,27.5,16.2,30.06,NW,306,15.0,21.0,62,0.00,,,0.00,VWS V14.01,2013-11-26 04:53:00,
2013-11-25 22:58:00,27.4,16.1,30.06,NNW,329,12.0,21.0,62,0.00,,,0.00,VWS V14.01,2013-11-26 04:58:00,
2013-11-25 23:00:00,27.4,16.1,30.06,NW,306,12.0,21.0,62,0.00,,,0.00,VWS V14.01,2013-11-26 05:00:00,
2013-11-25 23:01:00,27.4,16.1,30.07,NW,317,15.0,15.0,62,0.00,,,0.00,VWS V14.01,2013-11-26 05:01:00,
2013-11-25 23:02:00,27.4,16.1,30.06,NW,321,17.0,19.0,62,0.00,,,0.00,VWS V14.01,2013-11-26 05:02:00,
2013-11-25 23:07:00,27.1,16.2,30.07,NW,306,10.0,19.0,63,0.00,,,0.00,VWS V14.01,2013-11-26 05:07:00,
2013-11-25 23:12:00,27.0,16.1,30.07,NW,321,11.0,19.0,63,0.00,,,0.00,VWS V14.01,2013-11-26 05:12:00,
2013-11-25 23:17:00,26.8,15.9,30.07,NW,325,9.0,19.0,63,0.00,,,0.00,VWS V14.01,2013-11-26 05:17:00,
2013-11-25 23:22:00,26.7,15.8,30.07,NW,320,14.0,19.0,63,0.00,,,0.00,VWS V14.01,2013-11-26 05:22:00,
2013-11-25 23:27:00,26.6,15.0,30.07,NW,307,13.0,21.0,61,0.00,,,0.00,VWS V14.01,2013-11-26 05:27:00,
2013-11-25 23:30:00,26.6,15.0,30.07,NW,326,11.0,21.0,61,0.00,,,0.00,VWS V14.01,2013-11-26 05:30:00,
2013-11-25 23:32:00,26.6,15.0,30.07,NW,317,12.0,12.0,61,0.00,,,0.00,VWS V14.01,2013-11-26 05:32:00,
2013-11-25 23:37:00,26.6,15.0,30.08,NW,311,9.0,14.0,61,0.00,,,0.00,VWS V14.01,2013-11-26 05:37:00,
2013-11-25 23:42:00,26.5,14.9,30.08,North,5,8.0,15.0,61,0.00,,,0.00,VWS V14.01,2013-11-26 05:42:00,
2013-11-25 23:47:00,26.4,15.2,30.08,NW,321,10.0,15.0,62,0.00,,,0.00,VWS V14.01,2013-11-26 05:47:00,
2013-11-25 23:52:00,26.4,15.2,30.08,NNW,333,8.0,16.0,62,0.00,,,0.00,VWS V14.01,2013-11-26 05:52:00,
2013-11-25 23:57:00,26.3,15.4,30.08,NNW,337,6.0,16.0,63,0.00,,,0.00,VWS V14.01,2013-11-26 05:57:00,